Overview Statistics Trail Chart Weather Telemetry Raw packets
 

This is the latest recevied weather packets stored in our database for station/object DF1GD-10. If no packets are shown the sender has not sent any weather packets the latest 10 day(s).

<< 30 31 32 33 34 35 36 >>
Time Temp. Humidity Pressure Rain* Wind** Luminosity Snow
1787981822 13.89° C 60% 1016.6 hPa - - - -
1787980922 13.89° C 61% 1016.4 hPa - - - -
1787980022 13.33° C 63% 1016.4 hPa - - - -
1787979121 13.33° C 63% 1016.2 hPa - - - -
1787978221 13.33° C 60% 1016.2 hPa - - - -
1787977321 13.33° C 60% 1016.1 hPa - - - -
1787976421 13.33° C 60% 1016.2 hPa - - - -
1787975521 13.89° C 59% 1016.2 hPa - - - -
1787974621 13.89° C 60% 1016.2 hPa - - - -
1787973721 13.89° C 59% 1016.2 hPa - - - -
1787972820 13.89° C 59% 1016.2 hPa - - - -
1787971921 13.89° C 57% 1016.2 hPa - - - -
1787971020 14.44° C 57% 1016.2 hPa - - - -
1787970120 14.44° C 55% 1016.2 hPa - - - -
1787969220 15° C 55% 1016.2 hPa - - - -
1787968320 15° C 54% 1016.3 hPa - - - -
1787967420 15° C 54% 1016.3 hPa - - - -
1787966520 15.56° C 52% 1016.4 hPa - - - -
1787965620 16.11° C 50% 1016.4 hPa - - - -
1787964719 16.11° C 49% 1016.5 hPa - - - -
1787963819 16.67° C 47% 1016.7 hPa - - - -
1787962918 16.67° C 47% 1016.6 hPa - - - -
1787962018 17.22° C 46% 1016.6 hPa - - - -
1787961118 17.22° C 45% 1016.6 hPa - - - -
1787960218 17.22° C 44% 1016.5 hPa - - - -

* Rain since midnight (hover to see other rain measurements)
** Current wind speed in m/s (hover to see current wind gust speed)